User: anonymous   Login
Location: Apeadero de Los Molinos-Guadarrama
(40.7091°N, 4.0689°W)
Time: 05:44:18
(UTC+00:00)
Language:

Cosmos 1536 - Orbit

View from above orbital plane
View from above orbital plane
View from above satellite
View from above satellite

Ground track
Ground track

The orbit data is extracted from the following two-line orbital elements,

1 14699U 84013A   21210.53488454 -.00000045  00000-0 -50960-5 0  9998
2 14699  82.5269 313.1990 0011333 332.0342  28.0275 15.05849765 18123
Epoch (UTC): 29 July 2021 12:50:14
Eccentricity: 0.0011333
inclination: 82.5269°
perigee height: 541 km
apogee height: 557 km
right ascension of ascending node: 313.1990°
argument of perigee: 332.0342°
revolutions per day: 15.05849765
mean anomaly at epoch: 28.0275°
orbit number at epoch: 1812

The dashed part of the orbit path shows where the satellite is in the earth's shadow,  

DLR